GW0168 Weather Reports


time (UTC)temp
C
wind
direction
speed
KPH
gust
KPH
rain 1hr
cm
rain 24hr
cm
rain mn
cm
humidity
%
barometer
mb
20260504044529 3 0 0.0 0.0 0.00 0.00 0.00 74 1003.8
20260504043030 2 0 0.0 0.0 0.00 0.00 0.00 73 1003.8
20260504041540 3 0 0.0 0.0 0.00 0.00 0.00 74 1003.8
20260504040032 3 0 0.0 0.0 0.00 0.00 0.00 73 1003.8
20260504034529 3 0 0.0 0.0 0.00 0.00 0.00 72 1003.8
20260504033029 3 0 0.0 0.0 0.00 0.00 0.00 72 1004.0
20260504031530 3 0 0.0 0.0 0.00 0.00 0.00 72 1004.0
20260504030029 3 0 0.0 0.0 0.00 0.00 0.00 72 1004.2
20260504024530 3 0 0.0 0.0 0.00 0.00 0.00 71 1004.3
20260504023031 4 0 0.0 0.0 0.00 0.00 0.00 71 1004.4
20260504021528 4 0 0.0 0.0 0.00 0.00 0.00 69 1004.6
20260504020036 4 0 0.0 0.0 0.00 0.00 0.00 68 1004.7
20260504014531 5 0 0.0 0.0 0.00 0.00 0.00 66 1004.8
20260504013040 5 0 0.0 0.0 0.00 0.00 0.00 61 1005.0
20260504011531 5 0 0.0 0.0 0.00 0.00 0.00 59 1004.9
20260504010030 6 0 0.0 0.0 0.00 0.00 0.00 47 1004.9
20260504004530 6 0 0.0 1.6 0.00 0.00 0.00 46 1004.7
20260504003028 6 0 0.0 0.0 0.00 0.00 0.00 45 1004.7
20260504001534 7 280 0.0 1.6 0.00 0.00 0.00 46 1004.6
20260504000030 7 0 0.0 0.0 0.00 0.00 0.00 48 1004.7
20260503234530 7 0 0.0 3.2 0.00 0.05 0.00 51 1004.6
20260503233027 8 0 0.0 0.0 0.00 0.05 0.00 45 1004.6
20260503231531 8 0 0.0 0.0 0.00 0.05 0.00 44 1004.6
20260503230038 8 0 0.0 0.0 0.00 0.05 0.00 51 1004.6
20260503224531 8 0 0.0 0.0 0.00 0.05 0.00 47 1004.7
20260503223030 8 0 0.0 0.0 0.00 0.05 0.00 43 1004.6
20260503221531 8 0 0.0 3.2 0.00 0.05 0.00 40 1004.6
20260503220032 8 264 0.0 4.8 0.00 0.05 0.00 40 1004.7
20260503214537 9 283 1.6 6.4 0.00 0.05 0.00 41 1004.7
20260503213028 9 44 0.0 8.0 0.00 0.05 0.00 40 1004.6
20260503211528 9 263 0.0 4.8 0.00 0.05 0.00 38 1004.7
20260503210029 9 296 0.0 9.7 0.00 0.05 0.00 43 1004.7
20260503204529 8 329 1.6 11.3 0.00 0.08 0.00 40 1004.7
20260503203034 9 5 3.2 8.0 0.00 0.08 0.00 40 1004.8
20260503201530 9 254 3.2 11.3 0.00 0.08 0.00 40 1004.9
20260503200030 8 265 1.6 9.7 0.00 0.08 0.00 40 1004.9
20260503194531 9 0 1.6 9.7 0.00 0.08 0.00 40 1005.0
20260503193042 9 307 1.6 11.3 0.00 0.08 0.00 39 1005.1
20260503191559 9 331 1.6 9.7 0.00 0.08 0.00 39 1005.2
20260503190034 8 327 3.2 12.9 0.00 0.08 0.00 40 1005.4
20260503184531 8 302 6.4 19.3 0.00 0.10 0.00 41 1005.5
20260503183031 7 303 4.8 14.5 0.00 0.10 0.00 40 1005.6
20260503181541 7 269 3.2 17.7 0.00 0.10 0.00 40 1006.0
20260503180030 8 234 0.0 9.7 0.00 0.10 0.00 44 1006.0
20260503174539 8 250 1.6 8.0 0.00 0.13 0.00 42 1006.1
20260503173032 7 298 3.2 19.3 0.00 0.13 0.00 41 1006.4
20260503171530 8 303 3.2 12.9 0.00 0.13 0.00 42 1006.5
20260503081535 -1 0 0.0 0.0 0.00 0.15 0.00 94 1009.4
20260503071529 -1 0 0.0 0.0 0.00 0.15 0.00 95 1009.3
20260503054535 0 0 0.0 0.0 0.00 0.15 0.00 94 1009.5